Theta_e
319 318 316 316 316 322 323 327 327 326 328 327 328 326 328 327 326 320 316 319 325 313 311 310 311 313 314 313 315 317 317 318 320 318 317 319 318 318 318 319 320 321 326 327 335
319 318 316 316 315 319 322 326 327 326 325 328 326 315 321 321 314 310 312 311 313 312 310 310 312 314 314 315 315 316 317 320 319 316 316 318 318 318 317 318 320 325 329 333 333
319 318 316 315 315 318 321 324 327 323 326 326 323 320 312 311 309 310 310 311 311 311 311 310 313 314 313 316 316 316 317 316 316 319 319 318 317 318 315 315 318 328 333 333 331
316 318 316 315 314 316 318 322 326 320 322 319 315 311 309 309 309 311 311 311 310 309 311 313 314 314 314 315 316 316 317 316 316 317 318 317 318 317 317 317 318 317 319 328 328
318 318 316 315 314 316 317 321 324 318 318 317 315 309 309 308 311 311 311 311 309 309 310 314 313 314 314 315 316 315 315 316 316 317 318 319 317 317 318 317 318 318 320 320 323
319 318 316 315 315 316 317 319 317 313 313 312 311 309 308 308 310 311 310 310 309 309 310 313 314 314 314 315 314 315 314 314 315 315 316 317 315 317 318 317 317 319 320 321 321
318 318 315 315 314 316 316 317 311 310 310 311 309 308 308 309 310 311 310 309 309 309 310 313 313 314 314 313 314 315 313 313 313 314 313 315 315 314 317 317 317 321 320 320 321
318 317 315 315 314 316 316 316 310 309 308 308 308 307 308 310 310 310 310 309 308 310 312 313 313 313 315 313 313 312 311 312 312 313 313 313 314 314 316 316 317 316 317 320 322
317 316 316 314 313 315 316 316 309 308 308 308 307 309 310 310 310 308 310 309 310 312 312 313 312 313 313 309 310 311 309 312 313 312 312 312 312 313 315 314 314 314 314 314 315
317 315 316 314 315 315 315 313 309 308 307 307 307 309 309 309 310 309 311 309 311 312 312 311 313 310 309 308 309 311 311 311 311 310 312 311 311 310 313 313 313 314 313 313 314
316 316 315 314 315 315 315 310 309 308 307 308 309 309 309 309 310 311 312 311 311 310 309 312 309 310 309 309 311 309 309 311 310 311 311 310 310 310 313 312 312 312 313 314 314
315 316 315 314 314 315 311 309 308 308 310 308 309 311 310 309 311 312 312 312 311 309 310 310 310 309 310 310 311 311 309 310 310 311 310 311 310 308 310 311 313 313 313 314 314
315 316 315 314 314 314 309 309 309 308 309 308 309 310 310 310 310 311 312 312 310 309 309 309 310 310 310 309 310 310 310 309 311 310 310 309 307 308 308 311 313 314 314 314 314
315 316 314 314 314 314 308 308 309 308 308 309 308 310 309 311 310 311 312 312 311 310 309 310 310 310 310 310 309 310 309 309 309 307 307 308 306 306 309 308 309 312 313 314 314
315 316 314 314 314 313 308 309 308 309 310 308 308 309 309 310 310 311 312 311 309 310 309 310 309 310 310 310 309 310 308 309 310 309 308 308 306 305 306 310 309 310 313 313 314
315 315 314 313 314 311 309 309 308 308 311 308 308 310 311 310 310 310 311 311 311 310 308 310 310 310 309 308 308 307 308 307 306 306 307 306 306 305 307 308 309 310 312 313 312
315 315 313 313 314 310 309 309 308 307 308 308 308 309 309 310 310 309 308 308 308 309 309 309 309 308 309 308 308 308 306 307 308 307 306 305 307 306 308 307 307 309 312 312 313
315 314 313 313 313 310 310 308 306 307 308 308 309 308 308 309 310 309 308 309 307 307 308 308 309 308 308 308 308 308 307 309 308 310 308 305 307 307 306 309 311 311 312 312 312
314 314 313 313 312 311 308 309 307 307 309 308 308 308 308 309 309 308 307 309 308 306 308 308 309 307 308 309 308 308 309 307 307 296 305 306 305 306 307 307 309 308 310 311 311
314 313 312 312 310 309 308 308 312 308 309 308 309 307 306 308 309 308 308 307 308 307 307 308 310 309 308 309 309 308 307 308 306 303 305 305 306 306 310 307 306 307 308 311 311
314 313 312 312 309 308 308 307 311 310 309 309 308 308 307 308 308 308 308 307 307 308 307 307 308 309 308 308 308 308 308 307 306 306 307 305 305 303 307 307 306 306 309 309 310
313 307 312 311 309 307 305 308 310 311 311 311 309 309 307 308 309 308 308 308 309 308 308 308 308 307 308 307 306 307 307 306 306 305 304 307 307 307 306 309 309 309 310 310 310
308 305 310 311 309 308 306 310 310 312 312 312 311 310 308 308 309 309 309 308 308 308 308 307 307 301 308 308 308 308 308 308 306 304 307 305 307 305 307 308 311 310 310 310 310
305 306 305 309 307 307 307 309 311 311 312 312 311 310 309 309 310 309 310 310 309 308 309 309 307 306 307 307 308 308 308 308 307 307 307 306 307 308 309 309 310 311 311 311 311
300 300 302 306 307 307 307 309 311 311 312 313 313 311 310 310 311 310 311 309 309 308 309 309 303 308 306 307 308 307 307 308 308 308 308 308 307 308 305 307 309 310 311 311 311
299 301 303 304 307 307 309 309 310 312 311 313 312 311 311 310 311 311 311 309 309 309 308 308 303 306 304 308 308 308 307 307 308 308 307 307 307 305 308 307 309 309 310 310 310
299 300 305 307 307 309 309 311 311 311 310 312 312 312 312 311 309 310 310 310 310 308 308 305 303 302 307 309 309 305 305 308 308 307 308 308 309 308 307 307 309 310 310 310 311
Wind_Speed
39 38 34 33 35 36 35 35 32 30 31 30 25 24 21 22 19 20 23 17 22 12 13 15 13 10 11 8 6 2 3 3 4 6 6 13 4 6 10 13 6 5 6 14 22
40 39 35 33 33 36 33 36 32 30 28 31 28 22 21 20 18 24 23 18 19 16 12 19 16 15 8 5 4 3 2 5 5 8 7 14 15 11 7 13 7 14 16 23 20
43 41 35 34 33 36 36 35 35 32 29 29 27 22 20 18 14 22 20 18 18 17 11 15 13 12 7 7 5 5 4 4 8 7 24 20 10 11 14 3 12 25 30 24 20
42 41 36 33 33 36 36 37 37 34 32 28 26 24 21 19 8 4 18 19 17 16 15 17 15 7 5 6 6 1 6 2 2 6 15 12 14 9 11 6 12 18 22 23 22
44 40 36 34 35 36 34 35 37 35 32 28 29 23 24 21 11 3 13 22 18 21 23 21 20 9 5 5 10 4 1 3 3 8 11 11 6 4 8 11 14 20 22 21 21
46 41 36 35 33 34 34 33 37 35 32 29 25 28 25 8 16 7 7 20 24 22 23 22 14 13 10 7 7 5 5 5 3 3 4 7 2 4 9 13 13 21 23 19 20
49 43 40 37 31 33 32 32 36 35 32 30 29 27 23 22 13 12 7 17 24 22 23 22 9 15 4 5 8 11 5 3 3 4 2 6 1 6 8 18 18 22 19 17 18
50 48 43 39 35 31 30 30 35 33 31 29 27 26 7 21 10 14 13 18 20 18 16 20 13 12 5 9 4 6 5 3 2 8 1 3 6 9 13 18 19 19 20 21 21
53 48 45 40 37 31 30 29 33 32 30 28 28 16 7 18 17 15 17 21 21 17 15 17 12 6 6 7 3 1 4 4 1 6 3 2 6 3 10 18 16 17 18 19 21
52 48 47 42 40 35 32 30 32 31 26 23 17 7 12 18 23 19 18 21 24 18 13 12 6 4 2 3 6 5 5 4 5 5 3 3 7 5 1 12 16 17 17 18 21
54 53 49 45 43 41 37 39 32 14 36 13 20 4 22 16 22 20 21 23 17 16 5 7 4 7 9 8 4 7 6 6 0 2 4 6 7 9 15 11 15 17 15 17 17
52 52 49 47 46 44 45 31 39 22 15 8 19 8 27 26 13 27 25 12 12 6 6 3 5 8 8 6 4 3 6 4 2 0 2 3 9 9 11 14 21 23 20 20 18
53 52 49 50 46 45 54 22 18 38 8 3 22 12 19 18 11 27 32 12 10 9 7 6 7 10 9 7 8 3 6 5 5 2 3 2 7 7 9 23 26 28 25 24 23
53 52 52 51 48 50 50 29 25 27 4 4 7 7 12 12 5 26 33 13 6 13 10 6 7 11 7 5 6 5 4 6 9 4 3 2 5 6 5 8 9 29 30 28 26
52 57 56 57 41 54 50 35 36 13 8 13 7 8 17 7 20 15 29 4 9 7 7 7 8 8 6 8 7 5 6 7 4 4 2 2 1 7 5 4 7 18 24 28 23
57 58 55 51 39 51 36 36 32 3 7 9 12 10 10 7 2 11 12 7 7 5 5 3 1 2 6 4 7 8 8 9 6 4 2 6 6 5 5 8 6 7 14 19 18
60 60 57 48 40 53 36 25 3 5 6 8 7 11 11 6 4 4 7 6 7 7 4 3 3 2 4 9 6 7 6 3 2 2 6 3 4 7 6 8 8 9 8 13 18
58 59 55 39 42 44 36 11 5 6 7 3 8 16 10 11 2 7 10 10 5 6 4 6 2 6 2 7 9 9 8 6 7 5 4 3 7 6 9 11 12 9 12 16 17
56 60 50 34 47 39 31 15 10 10 8 9 9 18 5 10 8 6 9 19 9 8 7 5 2 2 3 2 10 5 5 5 7 3 3 5 7 8 9 8 9 7 10 16 15
56 49 46 39 52 41 14 11 4 7 10 17 7 7 8 19 6 8 15 9 6 8 3 4 5 2 1 2 2 5 7 2 3 4 3 5 6 7 4 11 5 7 17 17 15
44 26 47 55 56 30 16 7 4 4 24 8 7 7 9 14 7 10 15 5 10 13 7 4 5 1 3 7 7 3 3 2 5 5 5 1 7 7 10 8 10 15 18 19 19
31 5 57 58 14 12 10 6 5 4 5 4 5 6 12 17 6 10 11 9 25 21 15 5 6 4 8 3 5 3 5 6 5 4 3 4 10 2 5 3 6 2 7 14 16
23 8 43 59 15 19 6 4 4 4 3 5 4 3 6 11 6 5 7 1 25 17 19 9 3 3 3 3 3 4 4 3 4 3 8 6 10 4 3 5 6 2 4 8 11
11 5 5 41 8 24 14 6 4 3 4 4 6 5 8 13 3 8 5 1 4 9 19 20 4 9 11 5 7 7 8 11 6 4 6 9 13 2 3 3 1 4 6 8 11
5 3 5 11 11 26 17 16 9 6 1 5 3 9 12 7 5 6 5 4 4 6 7 7 6 5 4 6 6 5 9 13 16 15 8 16 16 17 7 6 13 12 11 14 16
4 5 5 7 24 24 20 17 16 9 8 7 8 7 10 10 6 11 9 5 5 3 4 1 1 4 3 6 6 3 8 11 16 8 13 4 19 8 2 3 8 15 16 20 23
7 9 7 11 21 19 19 20 23 15 3 10 11 7 8 4 18 14 17 13 8 7 4 4 5 4 3 1 6 8 9 10 6 7 10 14 27 2 3 10 19 20 23 27 30
Wind_Direction
229 226 224 223 212 211 210 206 205 203 205 202 198 191 191 190 201 212 215 220 206 194 195 196 193 188 197 184 198 287 84 216 233 165 175 153 119 91 107 120 99 96 136 164 161
222 224 222 222 216 209 207 206 203 202 200 193 189 190 190 195 206 222 214 195 187 204 212 192 181 176 159 174 183 155 142 222 216 153 163 158 153 145 125 126 102 101 132 154 164
224 219 220 217 215 207 205 203 203 200 196 190 191 188 192 190 199 237 205 201 197 191 195 189 187 178 158 161 179 192 203 304 355 133 156 161 157 162 137 177 182 151 153 167 172
226 215 216 214 214 207 204 201 202 198 198 192 190 188 186 177 174 218 199 205 191 188 179 178 180 193 152 153 200 241 254 354 35 55 151 158 155 153 159 177 196 186 182 179 183
211 210 210 208 209 204 201 197 198 197 195 195 185 187 180 183 201 113 188 193 192 190 188 183 182 177 166 202 143 189 236 86 64 96 127 156 142 147 164 137 149 178 183 186 188
203 204 204 203 205 203 196 193 192 189 190 186 187 189 182 194 212 214 196 195 194 192 189 182 195 173 187 186 152 178 134 110 106 80 94 127 117 173 184 160 153 170 184 193 200
201 201 199 195 201 200 197 189 186 183 186 186 184 185 186 197 207 204 206 199 194 193 189 179 176 210 190 129 143 136 100 78 156 167 135 118 3 232 172 191 164 173 189 201 210
199 196 193 189 191 196 192 188 179 178 178 181 180 178 200 210 202 196 190 177 184 180 191 182 196 178 135 133 93 121 87 130 276 158 169 148 247 252 200 188 185 189 196 206 219
197 191 188 181 178 185 186 184 173 171 173 172 172 170 205 197 205 188 185 176 170 178 190 190 179 148 138 121 56 51 162 151 272 200 115 143 250 294 205 200 203 205 214 219 222
194 190 183 176 171 176 176 174 160 159 159 160 179 183 203 191 192 182 167 170 165 171 157 173 167 119 77 93 180 162 141 160 182 222 130 153 251 273 188 205 226 234 236 235 231
191 189 180 173 169 169 167 152 139 148 163 177 184 226 175 170 178 173 160 158 160 157 156 193 126 177 183 185 182 152 167 142 87 262 144 209 257 256 261 243 245 244 242 237 236
185 183 177 172 169 169 170 169 166 179 154 155 174 126 148 159 152 168 162 151 145 155 150 76 198 203 178 197 163 133 154 131 90 287 155 200 260 257 248 240 240 246 240 240 241
183 180 175 170 168 170 173 179 164 156 125 109 163 159 163 158 151 168 168 156 154 160 167 147 213 196 170 169 155 176 162 170 150 136 5 19 294 253 252 242 241 239 240 239 242
181 176 172 167 168 174 171 165 161 152 98 174 167 201 178 155 131 171 172 157 160 184 155 176 230 184 150 163 131 144 137 127 122 103 209 129 271 294 243 247 216 240 238 238 240
179 177 173 177 169 174 162 162 168 164 147 157 167 178 169 176 137 184 183 178 164 166 133 207 156 153 155 170 143 189 138 132 119 96 84 260 49 267 278 247 244 232 233 239 235
180 174 171 173 177 174 162 162 180 89 192 176 147 163 145 165 115 139 167 174 156 114 57 129 108 99 157 80 121 147 84 45 46 75 299 231 178 267 217 215 239 223 238 239 228
181 173 171 172 168 166 166 155 150 158 157 162 164 159 157 145 116 131 152 173 157 124 136 80 54 350 118 83 6 103 89 44 27 348 225 7 239 243 255 242 199 193 202 188 195
177 170 171 174 173 163 163 151 156 185 177 145 136 144 166 139 107 162 138 186 249 117 127 146 187 170 191 153 174 166 163 158 181 196 228 10 238 254 245 243 243 224 211 198 200
178 167 166 167 171 169 163 180 191 170 144 123 99 151 154 181 136 142 189 193 192 175 141 131 173 54 82 109 147 219 197 166 106 34 71 231 293 287 258 248 221 197 187 191 204
161 157 167 165 171 168 173 182 154 171 116 139 141 179 161 175 135 155 170 196 189 185 124 158 117 9 141 141 66 163 154 102 10 122 252 279 271 237 277 251 251 217 208 202 210
153 154 166 169 169 167 188 195 143 145 140 142 151 148 169 177 138 176 178 189 178 198 130 143 103 268 136 212 157 126 178 124 122 153 169 216 260 224 212 213 234 245 237 220 225
158 126 163 166 160 190 182 179 137 155 125 132 120 118 159 172 147 177 183 198 189 170 197 173 119 164 197 255 206 138 184 153 163 234 214 165 254 244 137 129 181 226 222 221 225
134 118 161 168 176 186 160 154 171 139 154 144 117 134 140 154 134 160 183 8 179 173 178 174 181 77 57 334 354 189 171 188 122 79 212 146 256 360 97 71 56 122 186 209 215
126 127 142 181 170 166 174 165 128 79 132 112 113 100 111 156 113 172 139 112 108 159 170 162 146 180 192 191 149 178 192 202 172 190 196 232 261 256 75 56 125 184 218 225 242
92 115 155 171 188 173 172 162 159 158 117 134 85 167 150 141 126 150 131 130 56 136 146 146 163 125 135 118 125 169 187 196 207 211 188 251 248 256 217 254 264 254 225 228 241
91 129 132 118 157 165 175 184 177 146 150 169 141 163 159 156 167 159 138 148 175 64 108 28 96 99 343 143 149 201 204 204 218 205 243 276 270 104 171 226 291 284 247 239 249
58 93 122 143 160 164 187 170 182 143 358 148 155 130 117 97 93 83 95 77 131 134 124 104 122 91 214 124 73 288 184 198 192 194 212 226 247 57 250 239 263 270 265 261 265